Find Palapa A2

NORAD ID: 9862 Int'l Des: 1977-018 Owner: PER Country: ID operational
HEOCIRCULAR

Current View

Loading 3D Globe...

About Palapa A2

Description loading...

Upcoming Passes

Passes for default location (London). Set your location on the main map for personalized predictions.

Altitude History

Loading altitude history...

Two-Line Element Set

1 9862U 77018A 26149.15285192 .00000096 00000-0 00000+0 0 9997
2 9862 8.7006 310.4429 0004334 119.8748 253.3717 1.00046434142921
Epoch: May 29, 2026 • Age: 26 hours

Current Status

Altitude 35845.8 km
Velocity 3.07 km/s
Sub-Earth Point 5.48°N, 20.71°E
Type other

Most Searched